Flag for U.S.A. Weather past 2 weeks in Santa Clara, California, U.S.A.

Now
83 °F

Passing clouds.


Feels Like: 82 °F
Forecast: 62 / 89 °F
Wind: 7 mph from Northwest

Location: San Jose International Airport

Current Time: Jul 26, 2014 at 12:35:04 PM

Latest Report: Jul 26, 2014 at 11:53 AM


Visibility: 10 mi

Pressure: 29.92 "Hg

Humidity: 40%

Dew point: 56 °F

Location of Santa ClaraLocation

Historic Weather in Santa Clara — Graph

°F

Santa Clara temperature yesterday

Maximum temperature yesterday: 94 °F (at 3:53 PM)
Minimum temperature yesterday: 62 °F (at 4:53 AM)
Average temperature yesterday: 76 °F

Past Weeks' High & Low Weather Summary

 TemperatureHumidityPressure
High94 °F (Jul 25, 3:53 PM)93% (Jul 24, 5:53 AM)30.14 "Hg (Jul 24, 5:53 AM)
Low59 °F (Jul 12, 7:53 AM)17% (Jul 25, 3:53 PM)29.80 "Hg (Jul 25, 5:53 PM)
Average69 °F67%29.97 "Hg
* Reported Jul 11 10:53 AM — Jul 26 10:53 AM, Santa Clara, Weather by CustomWeather, © 2014

Note: Actual official high and low records may vary slightly from our data, if they occured in-between our weather recording intervals... More about our weather records

Advertising

Santa Clara weather history for previous 24 hours

 ConditionsComfort  
Time TempWeatherWind HumidityBarometerVisibility
10:53 AM
Jul 26
79 °FPassing clouds.No wind38%29.93 "Hg10 mi
9:53 AM73 °FPassing clouds.No wind46%29.93 "Hg10 mi
8:53 AM70 °FPassing clouds.3 mph55%29.93 "Hg10 mi
7:53 AM66 °FPassing clouds.3 mph68%29.93 "Hg10 mi
6:53 AM65 °FPassing clouds.No wind66%29.91 "Hg10 mi
5:53 AM63 °FPassing clouds.3 mph81%29.89 "Hg10 mi
4:53 AM63 °FClear.5 mph87%29.88 "Hg10 mi
3:53 AM67 °FClear.No wind53%29.88 "Hg10 mi
2:53 AM69 °FClear.5 mph47%29.87 "Hg10 mi
1:53 AM69 °FClear.5 mph49%29.87 "Hg10 mi
12:53 AM71 °FClear.7 mph44%29.87 "Hg10 mi
11:53 PM
Jul 25
70 °FClear.7 mph51%29.88 "Hg10 mi
10:53 PM74 °FPassing clouds.No wind46%29.88 "Hg10 mi
9:53 PM75 °FClear.3 mph47%29.87 "Hg10 mi
8:53 PM78 °FPassing clouds.9 mph39%29.85 "Hg10 mi
7:53 PM80 °FPassing clouds.12 mph34%29.83 "Hg10 mi
6:53 PM84 °FPassing clouds.17 mph31%29.81 "Hg10 mi
5:53 PM90 °FPassing clouds.16 mph24%29.80 "Hg10 mi
4:53 PM92 °FPassing clouds.18 mph23%29.81 "Hg10 mi
3:53 PM94 °FPassing clouds.13 mph17%29.81 "Hg10 mi
2:53 PM93 °FPassing clouds.12 mph18%29.82 "Hg10 mi
1:53 PM91 °FPassing clouds.6 mph20%29.84 "Hg10 mi
12:53 PM87 °FPassing clouds.7 mph21%29.85 "Hg10 mi
Weather by CustomWeather, © 2014

See weather overviewHow to use our weather pages